FW2813 Weather Reports


time (UTC)temp
F
wind
direction
speed
knots
gust
knots
rain 1hr
in
rain 24hr
in
rain mn
in
humidity
%
barometer
mb
20260505031517 44 205 0.0 4.3 0.00 0.28 0.00 88 1006.5
20260505030017 43 145 0.0 1.7 0.00 0.31 0.28 87 1006.3
20260505024512 43 144 0.0 3.5 0.00 0.31 0.28 86 1006.1
20260505023012 44 158 0.0 2.6 0.00 0.31 0.28 83 1006.0
20260505021511 45 172 0.9 2.6 0.00 0.31 0.28 80 1005.9
20260505020007 46 197 0.9 5.2 0.00 0.31 0.28 79 1005.6
20260505014510 47 175 0.0 2.6 0.00 0.31 0.28 78 1005.5
20260505013006 48 168 0.0 5.2 0.00 0.31 0.28 75 1005.5
20260505011504 50 168 0.9 4.3 0.00 0.31 0.28 71 1005.4
20260505010003 52 191 1.7 9.6 0.00 0.34 0.28 69 1005.2
20260505004507 52 206 1.7 11.3 0.00 0.34 0.28 69 1005.2
20260505003104 52 239 3.5 8.7 0.00 0.34 0.28 68 1005.0
20260505001558 52 276 4.3 10.4 0.00 0.34 0.28 66 1004.8
20260504234617 53 261 5.2 15.6 0.00 0.39 0.28 60 1004.5
20260504233054 53 270 4.3 7.8 0.00 0.39 0.28 60 1004.3
20260504231556 53 218 1.7 4.3 0.00 0.39 0.28 53 1004.0
20260504230050 53 219 1.7 5.2 0.00 0.54 0.28 53 1003.8
20260504224553 53 267 1.7 6.1 0.00 0.54 0.28 57 1003.4
20260504223047 54 274 4.3 12.2 0.00 0.54 0.28 57 1003.2
20260504221554 54 300 8.7 20.9 0.00 0.54 0.28 57 1003.1
20260504220047 54 270 7.8 20.9 0.00 0.76 0.28 55 1003.0
20260504214550 55 256 13.9 21.7 0.00 0.76 0.28 50 1002.8
20260504213050 55 302 8.7 16.5 0.00 0.76 0.28 51 1002.7
20260504211540 56 280 9.6 17.4 0.00 0.76 0.28 53 1002.6
20260504210037 56 281 11.3 18.2 0.00 0.82 0.28 49 1002.4
20260504204612 56 264 9.6 26.9 0.00 0.82 0.28 56 1002.3
20260504203034 57 311 8.7 15.6 0.00 0.82 0.28 51 1002.1
20260504201531 56 270 11.3 28.7 0.00 0.82 0.28 53 1001.7
20260504200034 56 253 12.2 20.9 0.00 0.89 0.28 55 1001.7
20260504194528 56 259 12.2 20.9 0.00 0.89 0.28 60 1001.5
20260504193025 56 188 10.4 21.7 0.00 0.89 0.28 59 1001.3
20260504191522 57 275 10.4 20.0 0.00 0.89 0.28 64 1001.0
20260504190018 56 203 12.2 21.7 0.00 0.91 0.28 63 1000.8
20260504184517 56 234 9.6 22.6 0.00 0.91 0.28 66 1000.5
20260504183015 56 301 14.8 25.2 0.00 0.91 0.28 70 1000.4
20260504181512 54 227 11.3 20.0 0.00 0.91 0.28 72 1000.4
20260504180008 53 282 7.0 18.2 0.00 0.91 0.28 76 1000.2
20260504174506 53 268 9.6 20.9 0.00 0.91 0.28 75 1000.2
20260504173006 53 284 11.3 19.1 0.00 0.91 0.28 78 1000.2
20260504171503 52 293 9.6 20.9 0.00 0.91 0.28 79 1000.0
20260504081529 36 262 15.6 23.5 0.03 0.80 0.16 95 983.3
20260504044541 39 252 4.3 12.2 0.02 0.67 0.03 95 976.2
20260504043033 39 288 6.1 13.9 0.02 0.66 0.02 95 975.4
20260504041531 39 255 4.3 9.6 0.02 0.66 0.02 95 974.7
20260504040026 40 278 5.2 7.8 0.02 0.66 0.02 95 974.0
20260504034525 39 115 0.0 1.7 0.02 0.65 0.02 95 973.5
20260504033024 39 115 0.0 5.2 0.02 0.65 0.01 95 973.3